Simultaneous Nadir Overpasses (SNOs) Predictions

Prediction of SNOs between METOP-A and NOAA-19 Satellite Orbit:

Table of predicted SNOs for the next 14.0 days since TLE Epoch: 6/7/2014
Index Date (METOP-A) Time (METOP-A) Lat,Lon (METOP-A) SZA (METOP-A ) Date (NOAA-19) Time (NOAA-19) Lat,Lon (NOAA-19) SZA (NOAA-19 ) Distance(km) Time Diff (sec)
1 06/08/2014 06:35:55 74.13, 75.82 51.27 06/08/2014 06:34:40 74.14, 75.65 51.30 5.71 75
2 06/08/2014 07:26:37 -74.09,-116.93 128.77 06/08/2014 07:25:35 -74.11,-117.00 128.74 2.74 62
3 06/08/2014 08:17:18 74.06, 50.32 51.20 06/08/2014 08:16:42 74.07, 50.34 51.21 0.47 36
4 06/08/2014 09:08:00 -74.03,-142.43 128.84 06/08/2014 09:07:37 -74.03,-142.31 128.83 3.70 23
5 06/08/2014 09:58:40 74.05, 24.95 51.18 06/08/2014 09:58:45 74.04, 24.90 51.17 1.99 5
6 06/08/2014 10:49:22 -74.01,-167.81 128.86 06/08/2014 10:49:40 -74.00,-167.75 128.87 2.31 18
7 06/08/2014 11:40:03 73.98, -0.55 51.12 06/08/2014 11:40:48 74.01, -0.54 51.13 2.56 45
8 06/08/2014 12:30:44 -74.00, 166.82 128.88 06/08/2014 12:31:43 -73.97, 166.82 128.91 3.08 59
9 06/08/2014 13:21:34 73.52, -26.99 50.69 06/08/2014 13:22:42 73.54, -24.90 50.63 66.05 68
10 06/18/2014 13:14:35 74.27, -23.47 50.85 06/18/2014 13:13:22 74.26, -24.21 50.87 22.30 73
11 06/18/2014 14:05:20 -74.10, 143.45 129.31 06/18/2014 14:04:16 -74.09, 143.50 129.32 2.27 64
12 06/18/2014 14:56:00 74.10, -49.22 50.70 06/18/2014 14:55:22 74.09, -49.27 50.68 2.39 38
13 06/18/2014 15:46:42 -74.09, 118.07 129.32 06/18/2014 15:46:19 -74.06, 118.06 129.35 3.22 23
14 06/18/2014 16:37:23 74.04, -74.72 50.63 06/18/2014 16:37:25 74.06, -74.71 50.65 2.06 2
15 06/18/2014 17:28:05 -74.02, 92.57 129.38 06/18/2014 17:28:22 -74.03, 92.63 129.38 1.83 17
16 06/18/2014 18:18:45 74.02,-100.10 50.62 06/18/2014 18:19:28 74.03,-100.14 50.62 1.45 43
17 06/18/2014 19:09:27 -74.01, 67.19 129.40 06/18/2014 19:10:25 -74.00, 67.19 129.42 1.05 58
18 06/18/2014 20:00:15 73.61,-126.43 50.24 06/18/2014 20:01:24 73.66,-124.73 50.22 53.29 69




NCC Satellite Simultaneous Nadir Overpasses (SN
